Location: Bishop's University Astronomical Observatory
(45.3661°N, 71.8475°W)
Time: 17:58:24
(UTC-05:00)

CZ-4C R/B - Visible Passes

Search period start: 27 January 2015 00:00
Search period end: 06 February 2015 00:00
Orbit: 779 x 1224 km, 63.4° (Epoch: 25 January)

Date Brightness Start Highest point End Pass type
(mag) Time Alt. Az. Time Alt. Az. Time Alt. Az.
27 Jan 4.5 03:48:01 18° N 03:49:21 19° NNE 03:54:17 10° ENE visible
27 Jan 3.6 05:33:13 10° NNW 05:39:38 47° NE 05:46:47 10° ESE visible
28 Jan 5.1 02:35:28 13° NNE 02:35:28 13° NNE 02:36:54 10° NE visible
28 Jan 4.3 04:20:39 19° N 04:23:56 27° NNE 04:29:58 10° E visible
28 Jan 3.0 06:06:38 10° NW 06:13:33 80° NE 06:21:07 10° SE visible
29 Jan 4.7 03:08:08 18° NNE 03:08:08 18° NNE 03:12:27 10° ENE visible
29 Jan 3.8 04:53:19 17° NNW 04:58:14 41° NE 05:05:13 10° ESE visible
29 Jan 3.0 06:40:21 10° NW 06:47:11 58° WSW 06:54:34 10° SSE visible
30 Jan 4.3 03:40:50 22° N 03:42:26 24° NNE 03:48:12 10° E visible
30 Jan 3.0 05:26:02 13° NW 05:32:14 70° NE 05:39:45 10° SE visible
31 Jan 5.0 02:28:23 15° NE 02:28:23 15° NE 02:30:39 10° NE visible
31 Jan 3.9 04:13:35 24° N 04:16:49 37° NE 04:23:35 10° ESE visible
31 Jan 2.9 05:59:01 10° NW 06:05:56 68° WSW 06:13:26 10° SSE visible
01 Feb 4.5 03:01:12 22° NNE 03:01:12 22° NNE 03:06:24 10° ENE visible
01 Feb 3.2 04:46:24 23° NNW 04:50:53 61° NE 04:58:19 10° SE visible
01 Feb 3.5 06:33:01 10° NW 06:39:23 36° WSW 06:46:05 10° S visible
02 Feb 4.0 03:34:05 31° NNE 03:35:22 33° NE 03:41:54 10° E visible
02 Feb 2.7 05:19:17 18° NW 05:24:40 79° SW 05:32:14 10° SSE visible
03 Feb 4.9 02:21:49 18° NE 02:21:49 18° NE 02:24:35 10° ENE visible
03 Feb 3.3 04:07:02 37° N 04:09:32 53° NE 04:16:50 10° ESE visible
03 Feb 3.2 05:52:15 13° NW 05:58:11 43° WSW 06:05:10 10° S visible
04 Feb 4.3 02:54:52 29° NE 02:54:52 29° NE 03:00:12 10° E visible
04 Feb 2.7 04:40:05 36° NW 04:43:22 90° NE 04:50:58 10° SE visible
04 Feb 4.0 06:26:10 10° WNW 06:31:28 22° WSW 06:36:46 10° SSW visible
05 Feb 3.5 03:28:02 46° NE 03:28:09 46° NE 03:35:17 10° ESE visible
05 Feb 3.0 05:13:16 27° WNW 05:16:57 50° WSW 05:24:10 10° SSE visible
05 Feb 3.9 18:48:47 10° SSE 18:50:17 16° SE 18:50:17 16° SE visible
05 Feb 4.7 20:35:06 10° SW 20:35:33 12° SW 20:35:33 12° SW visible
